Overview Statistics Trail Chart Weather Telemetry Raw packets
 

This is the latest recevied weather packets stored in our database for station/object JF7BTK-10. If no packets are shown the sender has not sent any weather packets the latest 10 day(s).

<< 41 42 43 44 45 46 47 >>
Time Temp. Humidity Pressure Rain* Wind** Luminosity Snow
1788138789 24.44° C 68% 1010.3 hPa 0 mm - - -
1788137888 24.44° C 67% 1010.2 hPa 0 mm - - -
1788136988 25° C 67% 1010.2 hPa 0 mm - - -
1788136089 23.89° C 70% 1010.2 hPa 0 mm - - -
1788135189 23.89° C 70% 1010 hPa 0 mm - - -
1788134287 23.33° C 71% 1009.9 hPa 0 mm - - -
1788133388 23.33° C 71% 1009.9 hPa 0 mm - - -
1788132488 23.33° C 70% 1009.7 hPa 0 mm - - -
1788131588 23.33° C 70% 1009.6 hPa 0 mm - - -
1788130688 23.33° C 69% 1009.8 hPa 0 mm - - -
1788129788 23.33° C 70% 1009.3 hPa 0 mm - - -
1788128887 22.78° C 71% 1009.5 hPa 0 mm - - -
1788127989 23.33° C 71% 1009.3 hPa 0 mm - - -
1788127089 22.78° C 74% 1009.3 hPa 0 mm - - -
1788126189 21.67° C 80% 1009.3 hPa 0 mm - - -
1788125288 21.11° C 80% 1009.4 hPa 0 mm - - -
1788124388 21.11° C 86% 1009.2 hPa 0 mm - - -
1788123488 19.44° C 85% 1009 hPa 0 mm - - -
1788122587 19.44° C 85% 1008.9 hPa 0 mm - - -
1788121688 19.44° C 84% 1008.8 hPa 0 mm - - -
1788120789 19.44° C 83% 1008.5 hPa 0 mm - - -
1788119889 20° C 82% 1008.3 hPa 0 mm - - -
1788118988 20° C 82% 1008.1 hPa 0 mm - - -
1788118089 20° C 82% 1008.3 hPa 0 mm - - -
1788117353 20° C 82% 1008.2 hPa 0 mm - - -

* Rain latest hour (hover to see other rain measurements)
** Current wind speed in m/s (hover to see current wind gust speed)